Regional Weather Roundup
Issued by NWS State College, PA

Home | Current Version | Previous Version | Text Only | Print | Product List | Glossary Off
Versions: 1 2 3 4 5 6 7 8 9 10 11 12 13 14 15 16 17 18 19 20 21 22 23 24 25 26 27 28 29 30 31 32 33 34 35 36 37 38 39 40 41 42 43 44 45 46 47 48 49 50

000
ASUS41 KCTP 290703
RWRCTP

REGIONAL WEATHER ROUNDUP
NATIONAL WEATHER SERVICE STATE COLLEGE PA
300 AM EDT SAT APR 29 2017

Note: "fair" indicates few or no clouds below 12,000 feet with no
significant weather and/or obstructions to visibility.

* = STATION THAT DOES NOT REPORT PRECIPITATION /E.G. RAIN...SNOW...ETC/
    THUNDER OR FOG.

PAZ002>004-007>009-013>016-020>023-029>032-290800-
WESTERN PENNSYLVANIA

CITY           SKY/WX    TMP DP  RH WIND       PRES   REMARKS
ERIE           LGT RAIN  56  53  90 W7        29.98R
MEADVILLE      CLOUDY    55  53  93 CALM      29.97F
FRANKLIN*      CLOUDY    54  48  82 CALM      29.99F
NEW CASTLE     PTSUNNY   53  52  96 VRB5      29.98F
BEAVER COUNTY  NOT AVBL
BUTLER*        CLOUDY    54  52  94 SE6       29.99F
PITTSBURGH INT CLOUDY    55  53  93 SE5       29.98F
PITTSBURGH     CLOUDY    54  50  86 SE5       29.98F
INDIANA*       CLOUDY    55  52  88 E7        30.03S
LATROBE        CLOUDY    54  54 100 CALM      30.02R
WASHINGTON CO* CLOUDY    54  52  94 SE3       30.00F
$$

PAZ004>006-010>012-017>019-024>028-033>037-041-042-045-046-049>053-290800-
CENTRAL PENNSYLVANIA

CITY           SKY/WX    TMP DP  RH WIND       PRES   REMARKS
BRADFORD       CLOUDY    52  51  97 CALM      29.98F
DUBOIS         CLOUDY    54  52  93 SE6       29.98F
CLEARFIELD     CLOUDY    53  53 100 N5        30.00F
JOHNSTOWN      CLOUDY    52  51  97 NW8       30.03R FOG
ALTOONA        LGT RAIN  56  54  93 N10       30.02F
STATE COLLEGE  CLOUDY    54  52  94 CALM      30.01F
WILLIAMSPORT   NOT AVBL
SELINSGROVE    RAIN      59  58  96 CALM      30.07R FOG
FT INDIANTOWN  LGT RAIN  63  63 100 CALM      30.03F FOG
CAPITAL CITY   TSTM      66  60  81 NW10      30.07R
HARRISBURG     TSTM      67  64  90 NW12      30.03R
YORK           TSTM      68  65  90 CALM      30.02R
$$

PAZ038>040-043-044-047-048-054-055-060>062-067>071-290800-
EASTERN PENNSYLVANIA

CITY           SKY/WX    TMP DP  RH WIND       PRES   REMARKS
SCRANTON       LGT RAIN  58  54  86 CALM      30.03F
MOUNT POCONO   LGT RAIN  54  51  90 W6        30.09R
ALLENTOWN      CLOUDY    63  51  65 CALM      30.03S
QUAKERTOWN*    CLOUDY    63  57  82 CALM      30.04F
READING        LGT RAIN  65  59  81 NE5       30.00F
LANCASTER      CLOUDY    68  62  81 N3        30.01F
COATESVILLE    CLOUDY    66  61  82 CALM      30.03F
POTTSTOWN      CLOUDY    67  60  78 CALM      30.03F
BLUE BELL      CLOUDY    63  61  94 CALM      30.03F
DOYLESTOWN     CLOUDY    64  59  83 CALM      30.02F
WILLOW GROVE   NOT AVBL
NORTH PHILA    CLOUDY    68  62  81 CALM      30.03F
PHILADELPHIA   CLOUDY    68  63  84 CALM      30.02F
$$




USA.gov is the U.S. government's official web portal to all federal, state and local government web resources and services.